EW0259 Weather Reports


time (UTC)temp
C
wind
direction
speed
KPH
gust
KPH
rain 1hr
cm
rain 24hr
cm
rain mn
cm
humidity
%
barometer
mb
20260510194729 15 231 3.2 8.0 0.00 0.00 0.00 72 1020.5
20260510194237 15 183 3.2 8.0 0.00 0.00 0.00 74 1020.5
20260510193725 14 236 1.6 6.4 0.00 0.00 0.00 75 1020.5
20260510193312 14 167 3.2 8.0 0.00 0.00 0.00 75 1020.4
20260510192732 14 218 3.2 8.0 0.00 0.00 0.00 75 1020.5
20260510192240 14 69 0.0 6.4 0.00 0.00 0.00 77 1020.4
20260510191808 14 105 1.6 6.4 0.00 0.00 0.00 78 1020.6
20260510191224 14 276 0.0 8.0 0.00 0.00 0.00 78 1020.6
20260510190732 14 216 1.6 8.0 0.00 0.00 0.00 78 1020.5
20260510190300 14 211 1.6 8.0 0.00 0.00 0.00 78 1020.3
20260510185735 14 230 1.6 8.0 0.00 0.00 0.00 78 1020.4
20260510185223 14 74 1.6 4.8 0.00 0.00 0.00 79 1020.5
20260510184731 13 210 1.6 4.8 0.00 0.00 0.00 79 1020.5
20260510184259 13 112 1.6 6.4 0.00 0.00 0.00 79 1020.4
20260510184227 13 112 1.6 6.4 0.00 0.00 0.00 79 1020.4
20260510183755 13 339 1.6 3.2 0.00 0.00 0.00 79 1020.4
20260510183723 13 339 1.6 3.2 0.00 0.00 0.00 79 1020.4
20260510183311 13 288 0.0 6.4 0.00 0.00 0.00 81 1020.3
20260510182726 13 190 3.2 11.3 0.00 0.00 0.00 81 1020.1
20260510182234 13 269 3.2 11.3 0.00 0.00 0.00 81 1020.1
20260510181801 13 113 1.6 6.4 0.00 0.00 0.00 81 1020.0
20260510181258 13 105 3.2 6.4 0.00 0.00 0.00 81 1019.9
20260510181226 13 105 3.2 6.4 0.00 0.00 0.00 81 1019.9
20260510180734 13 39 1.6 6.4 0.00 0.00 0.00 82 1019.9
20260510180226 13 145 1.6 4.8 0.00 0.00 0.00 82 1020.0
20260510175733 13 47 0.0 3.2 0.00 0.00 0.00 83 1019.9
20260510175221 12 277 1.6 6.4 0.00 0.00 0.00 83 1019.9
20260510174728 12 78 1.6 6.4 0.00 0.00 0.00 84 1020.0
20260510174236 12 16 3.2 6.4 0.00 0.00 0.00 84 1020.2
20260510173804 12 286 1.6 6.4 0.00 0.00 0.00 84 1020.2
20260510173240 13 278 1.6 4.8 0.00 0.00 0.00 83 1020.1
20260510172727 12 202 1.6 3.2 0.00 0.00 0.00 83 1019.9
20260510172235 12 209 0.0 3.2 0.00 0.00 0.00 84 1019.9
20260510171723 12 230 1.6 4.8 0.00 0.00 0.00 84 1019.9
20260510171231 12 301 1.6 8.0 0.00 0.00 0.00 84 1019.9
20260510170723 12 302 0.0 9.7 0.00 0.00 0.00 84 1019.9
20260510170230 12 234 3.2 9.7 0.00 0.00 0.00 84 1019.9
20260510165737 12 301 3.2 6.4 0.00 0.00 0.00 83 1019.9
20260510165225 12 264 3.2 6.4 0.00 0.00 0.00 83 1019.9
20260510164733 13 173 1.6 4.8 0.00 0.00 0.00 83 1019.7
20260510164240 13 171 0.0 6.4 0.00 0.00 0.00 83 1019.6
20260510163728 12 96 1.6 6.4 0.00 0.00 0.00 84 1019.3
20260510163256 12 109 0.0 3.2 0.00 0.00 0.00 84 1019.3
20260510163224 12 109 0.0 3.2 0.00 0.00 0.00 84 1019.3
20260510162810 12 159 1.6 4.8 0.00 0.00 0.00 84 1019.2
20260510162227 12 138 3.2 4.8 0.00 0.00 0.00 84 1019.0
20260510161735 12 69 0.0 6.4 0.00 0.00 0.00 85 1019.0
20260510161227 12 120 1.6 6.4 0.00 0.00 0.00 85 1019.2
20260510160734 12 298 0.0 4.8 0.00 0.00 0.00 86 1019.2
20260510160241 12 198 1.6 4.8 0.00 0.00 0.00 86 1019.1
20260510155728 12 255 3.2 4.8 0.00 0.00 0.00 86 1019.1
20260510155236 12 360 1.6 3.2 0.00 0.00 0.00 86 1018.8
20260510154724 12 284 1.6 6.4 0.00 0.00 0.00 86 1018.8
20260510154311 12 209 1.6 6.4 0.00 0.00 0.00 86 1019.0
20260510153808 12 226 1.6 4.8 0.00 0.00 0.00 86 1019.2
20260510153305 12 271 1.6 4.8 0.00 0.00 0.00 86 1018.9
20260510152740 12 288 1.6 3.2 0.00 0.00 0.00 87 1018.7
20260510152228 12 320 0.0 3.2 0.00 0.00 0.00 87 1018.6
20260510151756 12 315 0.0 3.2 0.00 0.00 0.00 87 1018.3
20260510151232 12 313 1.6 3.2 0.00 0.00 0.00 87 1018.5
20260510150740 11 355 0.0 3.2 0.00 0.00 0.00 88 1018.7
20260510150232 11 24 1.6 3.2 0.00 0.00 0.00 90 1018.5
20260510145738 11 341 0.0 1.6 0.00 0.00 0.00 90 1018.5
20260510145226 11 331 0.0 1.6 0.00 0.00 0.00 91 1018.7
20260510144734 10 323 0.0 3.2 0.00 0.00 0.00 91 1018.8
20260510144302 10 323 0.0 3.2 0.00 0.00 0.00 91 1018.9
20260510144230 10 323 0.0 3.2 0.00 0.00 0.00 91 1018.9
20260510143738 10 57 0.0 0.0 0.00 0.00 0.00 92 1018.9
20260510143226 10 277 0.0 0.0 0.00 0.00 0.00 93 1019.0
20260510142733 10 277 0.0 0.0 0.00 0.00 0.00 93 1018.9
20260510142221 10 277 0.0 0.0 0.00 0.00 0.00 93 1018.8
20260510141809 10 276 0.0 0.0 0.00 0.00 0.00 94 1018.6
20260510141225 9 277 0.0 0.0 0.00 0.00 0.00 94 1018.4
20260510140733 9 317 0.0 0.0 0.00 0.00 0.00 93 1018.1
20260510140224 8 68 0.0 0.0 0.00 0.00 0.00 93 1017.7
20260510135731 8 68 0.0 0.0 0.00 0.00 0.00 93 1017.7
20260510135239 8 50 0.0 0.0 0.00 0.00 0.00 94 1017.7
20260510134727 8 5 0.0 0.0 0.00 0.00 0.00 94 1017.9
20260510134235 8 5 0.0 0.0 0.00 0.00 0.00 94 1018.0
20260510133723 8 5 0.0 0.0 0.00 0.00 0.00 94 1018.1
20260510133231 8 5 0.0 0.0 0.00 0.00 0.00 94 1018.3
20260510132758 7 5 0.0 0.0 0.00 0.00 0.00 94 1018.4
20260510132726 7 5 0.0 0.0 0.00 0.00 0.00 94 1018.4
20260510132234 7 5 0.0 0.0 0.00 0.00 0.00 93 1018.5
20260510131722 7 5 0.0 0.0 0.00 0.00 0.00 93 1018.6
20260510131234 7 5 0.0 0.0 0.00 0.00 0.00 93 1018.6
20260510130722 7 5 0.0 0.0 0.00 0.00 0.00 93 1018.5
20260510130310 7 5 0.0 0.0 0.00 0.00 0.00 93 1018.5
20260510125805 7 309 0.0 0.0 0.00 0.00 0.00 93 1018.7
20260510125221 7 309 0.0 0.0 0.00 0.00 0.00 93 1018.7
20260510124729 7 309 0.0 0.0 0.00 0.00 0.00 93 1018.6
20260510124237 8 309 0.0 0.0 0.00 0.00 0.00 93 1018.5
20260510123725 8 309 0.0 0.0 0.00 0.00 0.00 93 1018.5
20260510123233 8 309 0.0 0.0 0.00 0.00 0.00 93 1018.6
20260510122740 8 309 0.0 0.0 0.00 0.00 0.00 93 1018.5
20260510122227 8 309 0.0 0.0 0.00 0.00 0.00 93 1018.4
20260510121755 8 309 0.0 0.0 0.00 0.00 0.00 93 1018.4
20260510121723 8 309 0.0 0.0 0.00 0.00 0.00 93 1018.4
20260510121311 8 309 0.0 0.0 0.00 0.00 0.00 93 1018.4
20260510121239 8 309 0.0 0.0 0.00 0.00 0.00 93 1018.4
20260510120807 8 309 0.0 0.0 0.00 0.00 0.00 93 1018.2
20260510120735 8 309 0.0 0.0 0.00 0.00 0.00 93 1018.2
20260510120303 8 309 0.0 0.0 0.00 0.00 0.00 93 1018.4
20260510120231 8 309 0.0 0.0 0.00 0.00 0.00 93 1018.4
20260510115738 8 309 0.0 0.0 0.00 0.00 0.00 92 1018.3
20260510115230 8 309 0.0 0.0 0.00 0.00 0.00 92 1018.2
20260510114738 8 309 0.0 0.0 0.00 0.00 0.00 91 1018.1
20260510114226 8 309 0.0 0.0 0.00 0.00 0.00 92 1018.3
20260510113755 8 309 0.0 0.0 0.00 0.00 0.00 92 1018.4
20260510113722 8 309 0.0 0.0 0.00 0.00 0.00 92 1018.4
20260510113230 8 309 0.0 0.0 0.00 0.00 0.00 92 1018.5
20260510112737 8 309 0.0 0.0 0.00 0.00 0.00 92 1018.5
20260510112225 8 309 0.0 0.0 0.00 0.00 0.00 93 1018.4
20260510111733 8 309 0.0 0.0 0.00 0.00 0.00 92 1018.4
20260510111240 8 309 0.0 0.0 0.00 0.00 0.00 92 1018.3
20260510110728 8 309 0.0 0.0 0.00 0.00 0.00 92 1018.2
20260510110236 8 309 0.0 0.0 0.00 0.00 0.00 92 1018.2
20260510105727 8 309 0.0 0.0 0.00 0.00 0.00 92 1018.0
20260510105255 8 309 0.0 0.0 0.00 0.00 0.00 92 1018.0
20260510104732 8 309 0.0 0.0 0.00 0.00 0.00 92 1018.0
20260510104300 8 309 0.0 0.0 0.00 0.00 0.00 92 1017.9
20260510103737 8 309 0.0 0.0 0.00 0.00 0.00 92 1018.1
20260510103225 8 309 0.0 0.0 0.00 0.00 0.00 91 1017.9
20260510102812 8 309 0.0 0.0 0.00 0.00 0.00 91 1017.8
20260510102740 8 309 0.0 0.0 0.00 0.00 0.00 91 1017.8
20260510102308 9 309 0.0 0.0 0.00 0.00 0.00 91 1017.8
20260510101725 9 309 0.0 0.0 0.00 0.00 0.00 92 1017.7
20260510101232 9 309 0.0 0.0 0.00 0.00 0.00 92 1017.8
20260510100740 9 309 0.0 0.0 0.00 0.00 0.00 92 1017.7
20260510100228 9 309 0.0 0.0 0.00 0.00 0.00 91 1017.7
20260510095735 9 309 0.0 0.0 0.00 0.00 0.00 92 1017.6
20260510095227 9 309 0.0 0.0 0.00 0.00 0.00 91 1017.5
20260510094755 9 309 0.0 0.0 0.00 0.00 0.00 91 1017.5
20260510094231 9 309 0.0 0.0 0.00 0.00 0.00 91 1017.4
20260510093738 9 309 0.0 0.0 0.00 0.00 0.00 90 1017.5
20260510093226 10 309 0.0 0.0 0.00 0.00 0.00 90 1017.4
20260510092733 10 309 0.0 0.0 0.00 0.00 0.00 90 1017.3
20260510092301 10 309 0.0 0.0 0.00 0.00 0.00 90 1017.2
20260510092229 10 309 0.0 0.0 0.00 0.00 0.00 90 1017.2
20260510091737 10 309 0.0 0.0 0.00 0.00 0.00 90 1017.3
20260510091305 10 309 0.0 0.0 0.00 0.00 0.00 90 1017.2
20260510090721 10 309 0.0 0.0 0.00 0.00 0.00 90 1017.3
20260510090229 10 309 0.0 0.0 0.00 0.00 0.00 90 1017.2
20260510085736 10 309 0.0 0.0 0.00 0.00 0.00 90 1017.3
20260510085224 10 309 0.0 0.0 0.00 0.00 0.00 89 1017.2
20260510084736 10 309 0.0 0.0 0.00 0.00 0.00 90 1017.1
20260510084224 10 309 0.0 0.0 0.00 0.00 0.00 89 1017.0
20260510083812 10 309 0.0 0.0 0.00 0.00 0.00 89 1017.0
20260510083740 10 309 0.0 0.0 0.00 0.00 0.00 89 1017.0
20260510083308 10 309 0.0 0.0 0.00 0.00 0.00 89 1017.0
20260510082723 10 309 0.0 0.0 0.00 0.00 0.00 89 1017.0
20260510082311 10 331 0.0 0.0 0.00 0.00 0.00 89 1017.1
20260510081728 10 331 0.0 0.0 0.00 0.00 0.00 88 1017.1
20260510081236 10 331 0.0 0.0 0.00 0.00 0.00 88 1017.0
20260510080724 10 331 0.0 0.0 0.00 0.00 0.00 88 1017.1
20260510080312 11 331 0.0 0.0 0.00 0.00 0.00 88 1017.2
20260510075807 11 331 0.0 0.0 0.00 0.00 0.00 88 1017.3
20260510075224 11 331 0.0 0.0 0.00 0.00 0.00 88 1017.3
20260510074732 11 331 0.0 0.0 0.00 0.00 0.00 88 1017.0
20260510074240 11 351 0.0 0.0 0.00 0.00 0.00 88 1017.0
20260510073728 11 351 0.0 0.0 0.00 0.00 0.00 87 1017.0
20260510073255 11 351 0.0 0.0 0.00 0.00 0.00 87 1017.2
20260510072735 11 351 0.0 0.0 0.00 0.00 0.00 87 1017.2
20260510072305 11 351 0.0 0.0 0.00 0.00 0.00 86 1017.1
20260510072231 11 351 0.0 0.0 0.00 0.00 0.00 86 1017.1
20260510071739 11 355 0.0 0.0 0.00 0.00 0.00 86 1017.2
20260510071227 11 351 0.0 0.0 0.00 0.00 0.00 86 1017.2
20260510070735 11 351 0.0 0.0 0.00 0.00 0.00 85 1017.2
20260510070223 11 351 0.0 0.0 0.00 0.00 0.00 85 1017.2
20260510065730 11 351 0.0 0.0 0.00 0.00 0.00 84 1017.3
20260510065238 12 351 0.0 0.0 0.00 0.00 0.00 84 1017.2
20260510064726 12 351 0.0 0.0 0.00 0.00 0.00 83 1017.3
20260510064254 12 355 0.0 0.0 0.00 0.00 0.00 83 1017.2
20260510063730 12 351 0.0 0.0 0.00 0.00 0.00 82 1017.4
20260510063222 12 351 0.0 0.0 0.00 0.00 0.00 82 1017.5
20260510062729 12 351 0.0 0.0 0.00 0.00 0.00 82 1017.5
20260510062237 12 319 0.0 0.0 0.00 0.00 0.00 82 1017.5
20260510061725 12 319 0.0 0.0 0.00 0.00 0.00 81 1017.5
20260510061253 12 319 0.0 0.0 0.00 0.00 0.00 81 1017.4
20260510060730 13 319 0.0 0.0 0.00 0.00 0.00 81 1017.4
20260510060237 13 319 0.0 0.0 0.00 0.00 0.00 80 1017.5
20260510055804 13 319 0.0 0.0 0.00 0.00 0.00 80 1017.5
20260510055732 13 319 0.0 0.0 0.00 0.00 0.00 80 1017.5
20260510055240 13 319 0.0 0.0 0.00 0.00 0.00 80 1017.4
20260510054807 13 319 0.0 0.0 0.00 0.00 0.00 80 1017.3
20260510054303 13 319 0.0 0.0 0.00 0.00 0.00 79 1017.3
20260510053740 13 319 0.0 0.0 0.00 0.00 0.00 79 1017.3
20260510053228 13 319 0.0 0.0 0.00 0.00 0.00 78 1017.2
20260510052735 13 319 0.0 0.0 0.00 0.00 0.00 77 1017.2
20260510052227 13 319 0.0 0.0 0.00 0.00 0.00 77 1017.2
20260510051735 13 319 0.0 0.0 0.00 0.00 0.00 76 1017.1
20260510051223 14 319 0.0 0.0 0.00 0.00 0.00 76 1017.2
20260510050811 14 319 0.0 0.0 0.00 0.00 0.00 75 1017.0
20260510050227 14 319 0.0 0.0 0.00 0.00 0.00 75 1017.0
20260510045754 14 319 0.0 0.0 0.00 0.00 0.00 74 1017.2
20260510045230 15 319 0.0 0.0 0.00 0.00 0.00 74 1017.1
20260510044738 15 319 0.0 0.0 0.00 0.00 0.00 73 1017.1
20260510044306 15 319 0.0 0.0 0.00 0.00 0.00 72 1017.0
20260510044234 15 319 0.0 0.0 0.00 0.00 0.00 72 1017.0
20260510043722 15 319 0.0 0.0 0.00 0.00 0.00 72 1017.1
20260510043230 15 319 0.0 0.0 0.00 0.00 0.00 71 1017.2
20260510042757 15 319 0.0 0.0 0.00 0.00 0.00 71 1017.2
20260510042725 15 319 0.0 0.0 0.00 0.00 0.00 71 1017.2
20260510042252 15 319 0.0 0.0 0.00 0.00 0.00 70 1017.1
20260510042221 15 319 0.0 0.0 0.00 0.00 0.00 70 1017.1
20260510041729 15 319 0.0 0.0 0.00 0.00 0.00 70 1017.1
20260510041237 16 319 0.0 0.0 0.00 0.00 0.00 69 1017.0
20260510040728 16 319 0.0 0.0 0.00 0.00 0.00 68 1017.0
20260510040305 16 319 0.0 0.0 0.00 0.00 0.00 68 1016.8
20260510035724 16 319 0.0 0.0 0.00 0.00 0.00 67 1016.9
20260510035232 16 319 0.0 0.0 0.00 0.00 0.00 66 1016.8
20260510034740 16 319 0.0 0.0 0.00 0.00 0.00 66 1016.9
20260510034228 16 319 0.0 0.0 0.00 0.00 0.00 65 1016.9
20260510033755 17 319 0.0 0.0 0.00 0.00 0.00 64 1016.9
20260510033231 17 319 0.0 0.0 0.00 0.00 0.00 64 1017.0
20260510032738 17 319 0.0 0.0 0.00 0.00 0.00 64 1017.1
20260510032306 17 319 0.0 0.0 0.00 0.00 0.00 63 1017.1
20260510031802 17 319 0.0 0.0 0.00 0.00 0.00 63 1017.2
20260510031730 17 319 0.0 0.0 0.00 0.00 0.00 63 1017.2
20260510031233 17 319 0.0 0.0 0.00 0.00 0.00 62 1017.3
20260510030721 18 319 0.0 0.0 0.00 0.00 0.00 60 1017.3
20260510030229 18 319 0.0 0.0 0.00 0.00 0.00 58 1017.1
20260510025736 18 319 0.0 0.0 0.00 0.00 0.00 59 1017.3
20260510025306 18 319 0.0 0.0 0.00 0.00 0.00 58 1017.3
20260510025232 18 319 0.0 0.0 0.00 0.00 0.00 58 1017.3
20260510024724 18 319 0.0 0.0 0.00 0.00 0.00 56 1017.4
20260510024232 19 319 0.0 0.0 0.00 0.00 0.00 56 1017.5
20260510023800 19 319 0.0 0.0 0.00 0.00 0.00 55 1017.5
20260510023728 19 319 0.0 0.0 0.00 0.00 0.00 55 1017.5
20260510023255 19 321 0.0 1.6 0.00 0.00 0.00 55 1017.4
20260510022731 19 341 0.0 3.2 0.00 0.00 0.00 54 1017.4
20260510022239 20 5 0.0 4.8 0.00 0.00 0.00 54 1017.4
20260510021727 20 57 1.6 4.8 0.00 0.00 0.00 53 1017.4
20260510021235 20 355 0.0 3.2 0.00 0.00 0.00 53 1017.5
20260510020723 20 355 0.0 4.8 0.00 0.00 0.00 53 1017.5
20260510020231 20 291 1.6 4.8 0.00 0.00 0.00 53 1017.6
20260510015738 20 32 0.0 3.2 0.00 0.00 0.00 52 1017.8
20260510015230 20 325 1.6 3.2 0.00 0.00 0.00 52 1018.0
20260510014758 20 344 0.0 4.8 0.00 0.00 0.00 53 1018.0
20260510014234 20 295 1.6 4.8 0.00 0.00 0.00 52 1018.0
20260510013802 20 302 1.6 4.8 0.00 0.00 0.00 52 1018.2
20260510013730 20 302 1.6 4.8 0.00 0.00 0.00 52 1018.2
20260510013258 20 9 1.6 4.8 0.00 0.00 0.00 52 1018.3
20260510012734 20 299 1.6 6.4 0.00 0.00 0.00 52 1018.1
20260510012221 20 350 3.2 6.4 0.00 0.00 0.00 51 1018.2
20260510011729 20 329 3.2 9.7 0.00 0.00 0.00 51 1018.4
20260510011257 20 313 3.2 9.7 0.00 0.00 0.00 51 1018.4
20260510010733 20 340 1.6 4.8 0.00 0.00 0.00 52 1018.3
20260510010241 20 26 1.6 4.8 0.00 0.00 0.00 52 1018.4
20260510005808 20 323 3.2 4.8 0.00 0.00 0.00 52 1018.5
20260510005736 20 323 3.2 4.8 0.00 0.00 0.00 52 1018.5
20260510005225 20 331 1.6 6.4 0.00 0.00 0.00 51 1018.5
20260510004812 20 259 3.2 8.0 0.00 0.00 0.00 52 1018.6
20260510004740 20 259 3.2 8.0 0.00 0.00 0.00 52 1018.6
20260510004228 20 276 4.8 9.7 0.00 0.00 0.00 50 1018.6
20260510003756 20 304 1.6 9.7 0.00 0.00 0.00 52 1018.5
20260510003724 20 304 1.6 9.7 0.00 0.00 0.00 52 1018.5
20260510003232 20 360 1.6 4.8 0.00 0.00 0.00 51 1018.5
20260510002723 20 14 0.0 6.4 0.00 0.00 0.00 52 1018.6
20260510002231 20 281 1.6 6.4 0.00 0.00 0.00 52 1018.7
20260510001759 20 335 3.2 6.4 0.00 0.00 0.00 51 1018.7
20260510001256 20 21 1.6 6.4 0.00 0.00 0.00 51 1018.9
20260510001224 20 21 1.6 6.4 0.00 0.00 0.00 51 1018.9
20260510000812 20 329 1.6 8.0 0.00 0.00 0.00 50 1018.9
20260510000740 20 329 1.6 8.0 0.00 0.00 0.00 50 1018.9
20260510000228 20 291 3.2 8.0 0.00 0.00 0.00 50 1019.0
20260509235735 20 13 1.6 8.0 0.00 0.00 0.00 49 1019.0
20260509235306 20 331 1.6 6.4 0.00 0.00 0.00 50 1019.1
20260509234759 20 24 3.2 6.4 0.00 0.00 0.00 51 1019.2
20260509234727 20 24 3.2 6.4 0.00 0.00 0.00 51 1019.2
20260509234235 20 55 3.2 6.4 0.00 0.00 0.00 50 1019.3
20260509233803 20 284 3.2 6.4 0.00 0.00 0.00 49 1019.4
20260509233239 20 11 3.2 6.4 0.00 0.00 0.00 49 1019.1
20260509232725 20 66 1.6 6.4 0.00 0.00 0.00 50 1019.3
20260509232233 20 280 3.2 9.7 0.00 0.00 0.00 49 1019.4
20260509231721 20 236 4.8 11.3 0.00 0.00 0.00 49 1019.4
20260509231229 20 290 4.8 11.3 0.00 0.00 0.00 49 1019.4
20260509230736 20 38 4.8 17.7 0.00 0.00 0.00 49 1019.6
20260509230228 20 234 3.2 12.9 0.00 0.00 0.00 49 1019.7
20260509225735 20 334 1.6 9.7 0.00 0.00 0.00 49 1019.7
20260509225223 20 270 1.6 12.9 0.00 0.00 0.00 50 1020.0
20260509224731 20 259 1.6 12.9 0.00 0.00 0.00 50 1020.1
20260509224259 20 360 3.2 8.0 0.00 0.00 0.00 50 1020.0
20260509223734 20 327 3.2 8.0 0.00 0.00 0.00 50 1019.9
20260509223222 20 305 3.2 9.7 0.00 0.00 0.00 50 1020.1
20260509222729 20 336 3.2 12.9 0.00 0.00 0.00 51 1020.1
20260509222237 20 233 4.8 12.9 0.00 0.00 0.00 51 1020.1
20260509221805 20 265 3.2 12.9 0.00 0.00 0.00 52 1020.2
20260509221733 20 265 3.2 12.9 0.00 0.00 0.00 52 1020.2
20260509221221 20 279 6.4 12.9 0.00 0.00 0.00 52 1020.2
20260509220733 20 350 3.2 16.1 0.00 0.00 0.00 52 1020.1
20260509220241 20 348 6.4 16.1 0.00 0.00 0.00 51 1020.3
20260509215728 20 240 3.2 11.3 0.00 0.00 0.00 53 1020.3
20260509215256 20 236 3.2 8.0 0.00 0.00 0.00 52 1020.2
20260509215224 20 236 3.2 8.0 0.00 0.00 0.00 52 1020.2
20260509214732 20 300 4.8 8.0 0.00 0.00 0.00 52 1020.2
20260509214240 20 326 3.2 8.0 0.00 0.00 0.00 50 1020.3
20260509213728 20 9 3.2 8.0 0.00 0.00 0.00 51 1020.3
20260509213236 20 342 3.2 9.7 0.00 0.00 0.00 53 1020.3
20260509212723 20 265 3.2 9.7 0.00 0.00 0.00 51 1020.4
20260509212230 20 255 3.2 8.0 0.00 0.00 0.00 51 1020.6
20260509211722 20 228 1.6 11.3 0.00 0.00 0.00 51 1020.6
20260509211230 20 302 3.2 8.0 0.00 0.00 0.00 51 1020.5
20260509210738 20 21 3.2 8.0 0.00 0.00 0.00 52 1020.5
20260509210226 20 270 3.2 8.0 0.00 0.00 0.00 52 1020.6
20260509205732 20 347 3.2 9.7 0.00 0.00 0.00 52 1020.5
20260509205239 20 347 6.4 9.7 0.00 0.00 0.00 52 1020.5
20260509204807 20 321 3.2 8.0 0.00 0.00 0.00 53 1020.6
20260509204224 19 257 0.0 9.7 0.00 0.00 0.00 53 1020.7
20260509203732 19 317 3.2 11.3 0.00 0.00 0.00 53 1020.7
20260509203240 19 192 3.2 11.3 0.00 0.00 0.00 55 1020.8
20260509202726 19 117 1.6 14.5 0.00 0.00 0.00 53 1020.8
20260509202238 19 291 4.8 14.5 0.00 0.00 0.00 53 1020.9
20260509201726 19 348 4.8 12.9 0.00 0.00 0.00 54 1020.9
20260509201234 19 346 3.2 12.9 0.00 0.00 0.00 54 1021.0
20260509200722 19 262 4.8 12.9 0.00 0.00 0.00 55 1021.2
20260509200229 19 288 3.2 4.8 0.00 0.00 0.00 55 1021.2
20260509195736 18 306 1.6 9.7 0.00 0.00 0.00 55 1021.2
20260509195224 18 67 3.2 9.7 0.00 0.00 0.00 56 1021.4